Погода в Гаджиево

Россия / Мурманская область     69°14′56″N   33°18′54″E
темп.,
°C
ветер,
м/с
пор.,
м/с
влажн.,
%
обл.,
%
осадки,
мм/ч
давл.,
гПа
погр.,
м
9 мая, вс
вс900:00+1ююв4678100 0.0 1007115
03:00+1юв2276100 0.0 100757
06:00+1ссв3397100 0.3 1005127
09:00+1ссз4599100 1.2 1004209
12:00+3зсз457944 0.1 1003707
15:00+5з665912 0.1 1004885
18:00+6зюз46599 0.0 1004869
21:00+5юз46685 0.0 1005116
10 мая, пн
пн1000:00+2юз48765 0.0 1005142
03:00+1юз510802 0.0 1006207
06:00+3юз813755 0.0 1006490
09:00+5юз1013612 0.0 1007773
12:00+7юз1113502 0.0 10081146
15:00+8зюз10125674 0.3 10091395
18:00+6зюз10117293 1.0 1010957
21:00+4зюз71091100 1.5 1012631
11 мая, вт
вт1100:00+4зюз488660 0.0 1013212
03:00+3зюз358567 0.0 1015132
06:00+4зюз568353 0.0 1016296
09:00+5зюз446937 0.0 1017624
12:00+6ююз3470100 0.0 1018599
15:00+7ююв6671100 0.1 1016730
18:00+5ююв4487100 0.3 1016559
21:00+4ююв3393100 1.8 1016391
12 мая, ср
ср1200:00+4сз1393100 0.6 1017441
03:00+5зсз2492100 0.6 1019119
06:00+4ссз3688100 0.1 1022327
09:00+4с3384100 0.1 1023311
12:00+5всв2280100 0.0 1024340
15:00+6всв2276100 0.0 1024431
18:00+5всв3486100 0.6 1025371
21:00+5в3492100 0.9 1024220
13 мая, чт
чт1300:00+5в3492100 0.1 1025153
03:00+4в4691100 0.1 1024208
06:00+4вюв5989100 0.1 1022328
09:00+4юв5796100 2.6 1020229
12:00+6ююз2390100 1.2 1018187
15:00+12зюз577369 1.2 1017675
18:00+8ссв3489100 0.0 101793
21:00+7в1193100 0.2 101734